owner,sensor,date,latitude,longitude,vertical_datum,direction_of_sea_water_velocity,sea_water_speed,upward_sea_water_velocity,qcFlag 
ADCP,ioos:station:wmo:42890:1,2015-10-01T00:12:00Z,27.6250,-90.4410,15.2,60.0,73.6,-99999.0,'1111122,1111122,1199999999' 
ADCP,ioos:station:wmo:42890:1,2015-10-01T00:32:00Z,27.6250,-90.4410,15.2,61.0,84.6,-9999.0,'11111222,11111222,99999999' 
ADCP,ioos:station:wmo:42890:1,2015-10-01T00:52:00Z,27.6250,-90.4410,15.2,61.0,72.8,-9999.0,'11111222,11111222,99999999' 
ADCP,ioos:station:wmo:42890:1,2015-10-01T01:12:00Z,27.6250,-90.4410,15.2,63.0,71.9,-99999.0,'1111122,1111122,1199999999' 
ADCP,ioos:station:wmo:42890:1,2015-10-01T01:32:00Z,27.6250,-90.4410,15.2,62.0,68.0,-9999.0,'11111222,11111222,99999999' 
ADCP,ioos:station:wmo:42890:1,2015-10-01T01:52:00Z,27.6250,-90.4410,15.2,62.0,72.9,-9999.0,'11111222,11111222,99999999' 
ADCP,ioos:station:wmo:42890:1,2015-10-01T02:12:00Z,27.6250,-90.4410,15.2,61.0,61.6,-99999.0,'1111122,1111122,1199999999' 
ADCP,ioos:station:wmo:42890:1,2015-10-01T02:32:00Z,27.6250,-90.4410,15.2,63.0,75.0,-9999.0,'11111222,11111222,99999999' 
ADCP,ioos:station:wmo:42890:1,2015-10-01T02:52:00Z,27.6250,-90.4410,15.2,63.0,64.2,-9999.0,'11111222,11111222,99999999' 
ADCP,ioos:station:wmo:42890:1,2015-10-01T03:12:00Z,27.6250,-90.4410,15.2,63.0,70.7,-9999.0,'11111222,11111222,99999999' 
ADCP,ioos:station:wmo:42890:1,2015-10-01T03:32:00Z,27.6250,-90.4410,15.2,64.0,71.8,-9999.0,'11111222,11111222,99999999' 
ADCP,ioos:station:wmo:42890:1,2015-10-01T03:52:00Z,27.6250,-90.4410,15.2,64.0,65.5,-9999.0,'11111222,11111222,99999999' 
ADCP,ioos:station:wmo:42890:1,2015-10-01T04:12:00Z,27.6250,-90.4410,15.2,63.0,62.3,-99999.0,'1111122,1111122,1199999999' 
ADCP,ioos:station:wmo:42890:1,2015-10-01T04:32:00Z,27.6250,-90.4410,15.2,62.0,51.5,-9999.0,'11111222,11111222,99999999' 
ADCP,ioos:station:wmo:42890:1,2015-10-01T04:52:00Z,27.6250,-90.4410,15.2,61.0,64.3,-9999.0,'11111222,11111222,99999999' 
ADCP,ioos:station:wmo:42890:1,2015-10-01T05:12:00Z,27.6250,-90.4410,15.2,62.0,53.9,-99999.0,'1111122,1111122,1199999999' 
ADCP,ioos:station:wmo:42890:1,2015-10-01T05:32:00Z,27.6250,-90.4410,15.2,38.0,50.8,-9999.0,'11111222,11111222,99999999' 
ADCP,ioos:station:wmo:42890:1,2015-10-01T05:52:00Z,27.6250,-90.4410,15.2,57.0,42.8,-9999.0,'11111222,11111222,99999999' 
ADCP,ioos:station:wmo:42890:1,2015-10-01T06:12:00Z,27.6250,-90.4410,15.2,56.0,44.7,-99999.0,'1111122,1111122,1199999999' 
ADCP,ioos:station:wmo:42890:1,2015-10-01T06:32:00Z,27.6250,-90.4410,15.2,54.0,43.9,-9999.0,'11111222,11111222,99999999' 
ADCP,ioos:station:wmo:42890:1,2015-10-01T06:52:00Z,27.6250,-90.4410,15.2,58.0,52.9,-9999.0,'11111222,11111222,99999999' 
ADCP,ioos:station:wmo:42890:1,2015-10-01T07:12:00Z,27.6250,-90.4410,15.2,58.0,58.9,-9999.0,'11111222,11111222,99999999' 
ADCP,ioos:station:wmo:42890:1,2015-10-01T07:32:00Z,27.6250,-90.4410,15.2,59.0,60.1,-9999.0,'11111222,11111222,99999999' 
ADCP,ioos:station:wmo:42890:1,2015-10-01T07:52:00Z,27.6250,-90.4410,15.2,57.0,57.4,-9999.0,'11111222,11111222,99999999' 
ADCP,ioos:station:wmo:42890:1,2015-10-01T08:12:00Z,27.6250,-90.4410,15.2,58.0,65.0,-9999.0,'11111222,11111222,99999999' 
ADCP,ioos:station:wmo:42890:1,2015-10-01T08:32:00Z,27.6250,-90.4410,15.2,62.0,76.5,-9999.0,'11111222,11111222,99999999' 
ADCP,ioos:station:wmo:42890:1,2015-10-01T08:52:00Z,27.6250,-90.4410,15.2,67.0,88.1,-9999.0,'11111222,11111222,99999999' 
ADCP,ioos:station:wmo:42890:1,2015-10-01T09:12:00Z,27.6250,-90.4410,15.2,67.0,87.0,-9999.0,'11111222,11111222,99999999' 
ADCP,ioos:station:wmo:42890:1,2015-10-01T09:32:00Z,27.6250,-90.4410,15.2,68.0,67.5,-9999.0,'11111222,11111222,99999999' 
ADCP,ioos:station:wmo:42890:1,2015-10-01T09:52:00Z,27.6250,-90.4410,15.2,64.0,58.8,-9999.0,'11111222,11111222,99999999' 
ADCP,ioos:station:wmo:42890:1,2015-10-01T10:12:00Z,27.6250,-90.4410,15.2,65.0,57.1,-99999.0,'1111122,1111122,1199999999' 
ADCP,ioos:station:wmo:42890:1,2015-10-01T10:32:00Z,27.6250,-90.4410,15.2,68.0,78.8,-9999.0,'11111222,11111222,99999999' 
ADCP,ioos:station:wmo:42890:1,2015-10-01T10:52:00Z,27.6250,-90.4410,15.2,67.0,71.2,-9999.0,'11111222,11111222,99999999' 
ADCP,ioos:station:wmo:42890:1,2015-10-01T11:12:00Z,27.6250,-90.4410,15.2,67.0,63.7,-99999.0,'1111122,1111122,1199999999' 
ADCP,ioos:station:wmo:42890:1,2015-10-01T11:32:00Z,27.6250,-90.4410,15.2,67.0,83.7,-9999.0,'11111222,11111222,99999999' 
ADCP,ioos:station:wmo:42890:1,2015-10-01T11:52:00Z,27.6250,-90.4410,15.2,68.0,83.8,-9999.0,'11111222,11111222,99999999' 
ADCP,ioos:station:wmo:42890:1,2015-10-01T12:12:00Z,27.6250,-90.4410,15.2,68.0,82.1,-99999.0,'1111122,1111122,1199999999' 
ADCP,ioos:station:wmo:42890:1,2015-10-01T12:32:00Z,27.6250,-90.4410,15.2,68.0,84.8,-9999.0,'11111222,11111222,99999999' 
ADCP,ioos:station:wmo:42890:1,2015-10-01T12:52:00Z,27.6250,-90.4410,15.2,69.0,89.9,-9999.0,'11111222,11111222,99999999' 
ADCP,ioos:station:wmo:42890:1,2015-10-01T13:12:00Z,27.6250,-90.4410,15.2,69.0,91.8,-99999.0,'1111122,1111122,1199999999' 
ADCP,ioos:station:wmo:42890:1,2015-10-01T13:32:00Z,27.6250,-90.4410,15.2,69.0,80.9,-9999.0,'11111222,11111222,99999999' 
ADCP,ioos:station:wmo:42890:1,2015-10-01T13:52:00Z,27.6250,-90.4410,15.2,69.0,87.6,-9999.0,'11111222,11111222,99999999' 
ADCP,ioos:station:wmo:42890:1,2015-10-01T14:12:00Z,27.6250,-90.4410,15.2,70.0,94.0,-9999.0,'11111222,11111222,99999999' 
ADCP,ioos:station:wmo:42890:1,2015-10-01T14:32:00Z,27.6250,-90.4410,15.2,70.0,92.4,-99999.0,'1111122,1111122,1199999999' 
ADCP,ioos:station:wmo:42890:1,2015-10-01T14:52:00Z,27.6250,-90.4410,15.2,70.0,91.8,-9999.0,'11111222,11111222,99999999' 
ADCP,ioos:station:wmo:42890:1,2015-10-01T15:12:00Z,27.6250,-90.4410,15.2,68.0,89.8,-99999.0,'1111122,1111122,1199999999' 
ADCP,ioos:station:wmo:42890:1,2015-10-01T15:32:00Z,27.6250,-90.4410,15.2,69.0,91.5,-9999.0,'11111222,11111222,99999999' 
ADCP,ioos:station:wmo:42890:1,2015-10-01T15:52:00Z,27.6250,-90.4410,15.2,67.0,89.2,-9999.0,'11111222,11111222,99999999' 
ADCP,ioos:station:wmo:42890:1,2015-10-01T16:12:00Z,27.6250,-90.4410,15.2,66.0,89.0,-99999.0,'1111122,1111122,1199999999' 
ADCP,ioos:station:wmo:42890:1,2015-10-01T16:32:00Z,27.6250,-90.4410,15.2,67.0,89.4,-9999.0,'11111222,11111222,99999999' 
ADCP,ioos:station:wmo:42890:1,2015-10-01T16:52:00Z,27.6250,-90.4410,15.2,63.0,79.2,-9999.0,'11111222,11111222,99999999' 
ADCP,ioos:station:wmo:42890:1,2015-10-01T17:12:00Z,27.6250,-90.4410,15.2,59.0,72.8,-99999.0,'1111122,1111122,1199999999' 
ADCP,ioos:station:wmo:42890:1,2015-10-01T17:32:00Z,27.6250,-90.4410,15.2,56.0,66.4,-9999.0,'11111222,11111222,99999999' 
ADCP,ioos:station:wmo:42890:1,2015-10-01T17:52:00Z,27.6250,-90.4410,15.2,56.0,69.8,-9999.0,'11111222,11111222,99999999' 
ADCP,ioos:station:wmo:42890:1,2015-10-01T18:12:00Z,27.6250,-90.4410,15.2,57.0,76.4,-9999.0,'11111222,11111222,99999999' 
ADCP,ioos:station:wmo:42890:1,2015-10-01T18:32:00Z,27.6250,-90.4410,15.2,55.0,74.0,-9999.0,'11111222,11111222,99999999' 
ADCP,ioos:station:wmo:42890:1,2015-10-01T18:52:00Z,27.6250,-90.4410,15.2,56.0,72.6,-9999.0,'11111222,11111222,99999999' 
ADCP,ioos:station:wmo:42890:1,2015-10-01T19:12:00Z,27.6250,-90.4410,15.2,57.0,76.6,-99999.0,'1111122,1111122,1199999999' 
ADCP,ioos:station:wmo:42890:1,2015-10-01T19:32:00Z,27.6250,-90.4410,15.2,58.0,77.6,-9999.0,'11111222,11111222,99999999' 
ADCP,ioos:station:wmo:42890:1,2015-10-01T19:52:00Z,27.6250,-90.4410,15.2,57.0,71.4,-9999.0,'11111222,11111222,99999999' 
ADCP,ioos:station:wmo:42890:1,2015-10-01T20:12:00Z,27.6250,-90.4410,15.2,57.0,74.3,-99999.0,'1111122,1111122,1199999999' 
ADCP,ioos:station:wmo:42890:1,2015-10-01T20:32:00Z,27.6250,-90.4410,15.2,57.0,76.4,-9999.0,'11111222,11111222,99999999' 
ADCP,ioos:station:wmo:42890:1,2015-10-01T20:52:00Z,27.6250,-90.4410,15.2,57.0,73.2,-9999.0,'11111222,11111222,99999999' 
ADCP,ioos:station:wmo:42890:1,2015-10-01T21:12:00Z,27.6250,-90.4410,15.2,58.0,74.7,-99999.0,'1111122,1111122,1199999999' 
ADCP,ioos:station:wmo:42890:1,2015-10-01T21:32:00Z,27.6250,-90.4410,15.2,59.0,77.9,-9999.0,'11111222,11111222,99999999' 
ADCP,ioos:station:wmo:42890:1,2015-10-01T21:52:00Z,27.6250,-90.4410,15.2,58.0,78.6,-99999.0,'1111122,1111122,1199999999' 
ADCP,ioos:station:wmo:42890:1,2015-10-01T22:12:00Z,27.6250,-90.4410,15.2,58.0,80.3,-9999.0,'11111222,11111222,99999999' 
ADCP,ioos:station:wmo:42890:1,2015-10-01T22:32:00Z,27.6250,-90.4410,15.2,60.0,86.4,-9999.0,'11111222,11111222,99999999' 
ADCP,ioos:station:wmo:42890:1,2015-10-01T22:52:00Z,27.6250,-90.4410,15.2,63.0,94.2,-9999.0,'11111222,11111222,99999999' 
ADCP,ioos:station:wmo:42890:1,2015-10-01T23:12:00Z,27.6250,-90.4410,15.2,60.0,86.6,-99999.0,'1111122,1111122,1199999999' 
ADCP,ioos:station:wmo:42890:1,2015-10-01T23:32:00Z,27.6250,-90.4410,15.2,60.0,88.8,-9999.0,'11111222,11111222,99999999' 
ADCP,ioos:station:wmo:42890:1,2015-10-01T23:52:00Z,27.6250,-90.4410,15.2,62.0,94.5,-9999.0,'11111222,11111222,99999999' 
ADCP,ioos:station:wmo:42890:1,2015-10-02T00:12:00Z,27.6250,-90.4410,15.2,63.0,99.3,-9999.0,'11111222,11111222,99999999' 
ADCP,ioos:station:wmo:42890:1,2015-10-02T00:32:00Z,27.6250,-90.4410,15.2,66.0,101.8,-9999.0,'11111222,11111222,99999999' 
ADCP,ioos:station:wmo:42890:1,2015-10-02T00:52:00Z,27.6250,-90.4410,15.2,65.0,99.1,-9999.0,'11111222,11111222,99999999' 
ADCP,ioos:station:wmo:42890:1,2015-10-02T01:12:00Z,27.6250,-90.4410,15.2,64.0,98.0,-99999.0,'1111122,1111122,1199999999' 
ADCP,ioos:station:wmo:42890:1,2015-10-02T01:32:00Z,27.6250,-90.4410,15.2,65.0,97.9,-9999.0,'11111222,11111222,99999999' 
ADCP,ioos:station:wmo:42890:1,2015-10-02T01:52:00Z,27.6250,-90.4410,15.2,63.0,90.7,-9999.0,'11111222,11111222,99999999' 
ADCP,ioos:station:wmo:42890:1,2015-10-02T02:12:00Z,27.6250,-90.4410,15.2,64.0,93.5,-99999.0,'1111122,1111122,1199999999' 
ADCP,ioos:station:wmo:42890:1,2015-10-02T02:32:00Z,27.6250,-90.4410,15.2,65.0,93.6,-9999.0,'11111222,11111222,99999999' 
ADCP,ioos:station:wmo:42890:1,2015-10-02T02:52:00Z,27.6250,-90.4410,15.2,67.0,99.5,-9999.0,'11111222,11111222,99999999' 
ADCP,ioos:station:wmo:42890:1,2015-10-02T03:12:00Z,27.6250,-90.4410,15.2,67.0,96.9,-99999.0,'1111122,1111122,1199999999' 
ADCP,ioos:station:wmo:42890:1,2015-10-02T03:32:00Z,27.6250,-90.4410,15.2,66.0,88.3,-9999.0,'11111222,11111222,99999999' 
ADCP,ioos:station:wmo:42890:1,2015-10-02T03:52:00Z,27.6250,-90.4410,15.2,65.0,82.5,-9999.0,'11111222,11111222,99999999' 
ADCP,ioos:station:wmo:42890:1,2015-10-02T04:12:00Z,27.6250,-90.4410,15.2,67.0,80.0,-99999.0,'1111122,1111122,1199999999' 
ADCP,ioos:station:wmo:42890:1,2015-10-02T04:32:00Z,27.6250,-90.4410,15.2,68.0,82.1,-9999.0,'11111222,11111222,99999999' 
ADCP,ioos:station:wmo:42890:1,2015-10-02T04:52:00Z,27.6250,-90.4410,15.2,69.0,85.7,-9999.0,'11111222,11111222,99999999' 
ADCP,ioos:station:wmo:42890:1,2015-10-02T05:12:00Z,27.6250,-90.4410,15.2,70.0,85.3,-99999.0,'1111122,1111122,1199999999' 
ADCP,ioos:station:wmo:42890:1,2015-10-02T05:32:00Z,27.6250,-90.4410,15.2,70.0,84.8,-9999.0,'11111222,11111222,99999999' 
ADCP,ioos:station:wmo:42890:1,2015-10-02T05:52:00Z,27.6250,-90.4410,15.2,70.0,86.1,-9999.0,'11111222,11111222,99999999' 
ADCP,ioos:station:wmo:42890:1,2015-10-02T06:12:00Z,27.6250,-90.4410,15.2,70.0,87.1,-99999.0,'1111122,1111122,1199999999' 
ADCP,ioos:station:wmo:42890:1,2015-10-02T06:32:00Z,27.6250,-90.4410,15.2,70.0,89.2,-99999.0,'1111122,1111122,1199999999' 
ADCP,ioos:station:wmo:42890:1,2015-10-02T06:52:00Z,27.6250,-90.4410,15.2,69.0,86.6,-9999.0,'11111222,11111222,99999999' 
ADCP,ioos:station:wmo:42890:1,2015-10-02T07:12:00Z,27.6250,-90.4410,15.2,68.0,84.7,-9999.0,'11111222,11111222,99999999' 
ADCP,ioos:station:wmo:42890:1,2015-10-02T07:32:00Z,27.6250,-90.4410,15.2,67.0,80.9,-9999.0,'11111222,11111222,99999999' 
ADCP,ioos:station:wmo:42890:1,2015-10-02T07:52:00Z,27.6250,-90.4410,15.2,66.0,82.2,-9999.0,'11111222,11111222,99999999' 
ADCP,ioos:station:wmo:42890:1,2015-10-02T08:12:00Z,27.6250,-90.4410,15.2,65.0,83.2,-9999.0,'11111222,11111222,99999999' 
ADCP,ioos:station:wmo:42890:1,2015-10-02T08:32:00Z,27.6250,-90.4410,15.2,65.0,84.1,-9999.0,'11111222,11111222,99999999' 
ADCP,ioos:station:wmo:42890:1,2015-10-02T08:52:00Z,27.6250,-90.4410,15.2,65.0,85.1,-9999.0,'11111222,11111222,99999999' 
ADCP,ioos:station:wmo:42890:1,2015-10-02T09:12:00Z,27.6250,-90.4410,15.2,63.0,79.9,-99999.0,'1111122,1111122,1199999999' 
ADCP,ioos:station:wmo:42890:1,2015-10-02T09:32:00Z,27.6250,-90.4410,15.2,62.0,79.6,-9999.0,'11111222,11111222,99999999' 
ADCP,ioos:station:wmo:42890:1,2015-10-02T09:52:00Z,27.6250,-90.4410,15.2,62.0,80.4,-9999.0,'11111222,11111222,99999999' 
ADCP,ioos:station:wmo:42890:1,2015-10-02T10:12:00Z,27.6250,-90.4410,15.2,62.0,83.4,-99999.0,'1111122,1111122,1199999999' 
ADCP,ioos:station:wmo:42890:1,2015-10-02T10:32:00Z,27.6250,-90.4410,15.2,62.0,80.8,-9999.0,'11111222,11111222,99999999' 
ADCP,ioos:station:wmo:42890:1,2015-10-02T10:52:00Z,27.6250,-90.4410,15.2,62.0,80.2,-9999.0,'11111222,11111222,99999999' 
ADCP,ioos:station:wmo:42890:1,2015-10-02T11:12:00Z,27.6250,-90.4410,15.2,62.0,82.2,-99999.0,'1111122,1111122,1199999999' 
ADCP,ioos:station:wmo:42890:1,2015-10-02T11:32:00Z,27.6250,-90.4410,15.2,62.0,83.2,-9999.0,'11111222,11111222,99999999' 
ADCP,ioos:station:wmo:42890:1,2015-10-02T11:52:00Z,27.6250,-90.4410,15.2,62.0,82.3,-99999.0,'1111122,1111122,1199999999' 
ADCP,ioos:station:wmo:42890:1,2015-10-02T12:12:00Z,27.6250,-90.4410,15.2,64.0,82.0,-9999.0,'11111222,11111222,99999999' 
ADCP,ioos:station:wmo:42890:1,2015-10-02T12:32:00Z,27.6250,-90.4410,15.2,64.0,84.8,-9999.0,'11111222,11111222,99999999' 
ADCP,ioos:station:wmo:42890:1,2015-10-02T12:52:00Z,27.6250,-90.4410,15.2,65.0,88.1,-9999.0,'11111222,11111222,99999999' 
ADCP,ioos:station:wmo:42890:1,2015-10-02T13:12:00Z,27.6250,-90.4410,15.2,65.0,85.6,-99999.0,'1111122,1111122,1199999999' 
ADCP,ioos:station:wmo:42890:1,2015-10-02T13:32:00Z,27.6250,-90.4410,15.2,64.0,84.6,-9999.0,'11111222,11111222,99999999' 
ADCP,ioos:station:wmo:42890:1,2015-10-02T13:52:00Z,27.6250,-90.4410,15.2,65.0,93.2,-9999.0,'11111222,11111222,99999999' 
ADCP,ioos:station:wmo:42890:1,2015-10-02T14:12:00Z,27.6250,-90.4410,15.2,65.0,87.9,-99999.0,'1111122,1111122,1199999999' 
ADCP,ioos:station:wmo:42890:1,2015-10-02T14:32:00Z,27.6250,-90.4410,15.2,65.0,88.2,-9999.0,'11111222,11111222,99999999' 
ADCP,ioos:station:wmo:42890:1,2015-10-02T14:52:00Z,27.6250,-90.4410,15.2,64.0,88.0,-9999.0,'11111222,11111222,99999999' 
ADCP,ioos:station:wmo:42890:1,2015-10-02T15:12:00Z,27.6250,-90.4410,15.2,65.0,94.4,-99999.0,'1111122,1111122,1199999999' 
ADCP,ioos:station:wmo:42890:1,2015-10-02T15:32:00Z,27.6250,-90.4410,15.2,65.0,92.1,-9999.0,'11111222,11111222,99999999' 
ADCP,ioos:station:wmo:42890:1,2015-10-02T15:52:00Z,27.6250,-90.4410,15.2,64.0,93.4,-9999.0,'11111222,11111222,99999999' 
ADCP,ioos:station:wmo:42890:1,2015-10-02T16:12:00Z,27.6250,-90.4410,15.2,65.0,91.0,-99999.0,'1111122,1111122,1199999999' 
ADCP,ioos:station:wmo:42890:1,2015-10-02T16:32:00Z,27.6250,-90.4410,15.2,66.0,86.5,-9999.0,'11111222,11111222,99999999' 
ADCP,ioos:station:wmo:42890:1,2015-10-02T16:52:00Z,27.6250,-90.4410,15.2,66.0,91.4,-9999.0,'11111222,11111222,99999999' 
ADCP,ioos:station:wmo:42890:1,2015-10-02T17:12:00Z,27.6250,-90.4410,15.2,65.0,87.3,-99999.0,'1111122,1111122,1199999999' 
ADCP,ioos:station:wmo:42890:1,2015-10-02T17:32:00Z,27.6250,-90.4410,15.2,67.0,94.2,-9999.0,'11111222,11111222,99999999' 
ADCP,ioos:station:wmo:42890:1,2015-10-02T17:52:00Z,27.6250,-90.4410,15.2,67.0,93.3,-9999.0,'11111222,11111222,99999999' 
ADCP,ioos:station:wmo:42890:1,2015-10-02T18:12:00Z,27.6250,-90.4410,15.2,67.0,95.4,-99999.0,'1111122,1111122,1199999999' 
ADCP,ioos:station:wmo:42890:1,2015-10-02T18:32:00Z,27.6250,-90.4410,15.2,68.0,97.8,-9999.0,'11111222,11111222,99999999' 
ADCP,ioos:station:wmo:42890:1,2015-10-02T18:52:00Z,27.6250,-90.4410,15.2,69.0,102.4,-9999.0,'11111222,11111222,99999999' 
ADCP,ioos:station:wmo:42890:1,2015-10-02T19:12:00Z,27.6250,-90.4410,15.2,68.0,98.4,-99999.0,'1111122,1111122,1199999999' 
ADCP,ioos:station:wmo:42890:1,2015-10-02T19:32:00Z,27.6250,-90.4410,15.2,68.0,102.2,-9999.0,'11111222,11111222,99999999' 
ADCP,ioos:station:wmo:42890:1,2015-10-02T19:52:00Z,27.6250,-90.4410,15.2,68.0,95.3,-9999.0,'11111222,11111222,99999999' 
ADCP,ioos:station:wmo:42890:1,2015-10-02T20:12:00Z,27.6250,-90.4410,15.2,68.0,95.1,-99999.0,'1111122,1111122,1199999999' 
ADCP,ioos:station:wmo:42890:1,2015-10-02T20:32:00Z,27.6250,-90.4410,15.2,65.0,89.9,-9999.0,'11111222,11111222,99999999' 
ADCP,ioos:station:wmo:42890:1,2015-10-02T20:52:00Z,27.6250,-90.4410,15.2,67.0,92.0,-9999.0,'11111222,11111222,99999999' 
ADCP,ioos:station:wmo:42890:1,2015-10-02T21:12:00Z,27.6250,-90.4410,15.2,67.0,91.8,-9999.0,'11111222,11111222,99999999' 
ADCP,ioos:station:wmo:42890:1,2015-10-02T21:32:00Z,27.6250,-90.4410,15.2,68.0,91.6,-9999.0,'11111222,11111222,99999999' 
ADCP,ioos:station:wmo:42890:1,2015-10-02T21:52:00Z,27.6250,-90.4410,15.2,69.0,91.5,-9999.0,'11111222,11111222,99999999' 
ADCP,ioos:station:wmo:42890:1,2015-10-02T22:12:00Z,27.6250,-90.4410,15.2,66.0,86.9,-99999.0,'1111122,1111122,1199999999' 
ADCP,ioos:station:wmo:42890:1,2015-10-02T22:32:00Z,27.6250,-90.4410,15.2,66.0,84.5,-9999.0,'11111222,11111222,99999999' 
ADCP,ioos:station:wmo:42890:1,2015-10-02T22:52:00Z,27.6250,-90.4410,15.2,66.0,86.2,-99999.0,'1111122,1111122,1199999999' 
ADCP,ioos:station:wmo:42890:1,2015-10-02T23:12:00Z,27.6250,-90.4410,15.2,67.0,86.3,-9999.0,'11111222,11111222,99999999' 
ADCP,ioos:station:wmo:42890:1,2015-10-02T23:32:00Z,27.6250,-90.4410,15.2,64.0,79.2,-9999.0,'11111222,11111222,99999999' 
ADCP,ioos:station:wmo:42890:1,2015-10-02T23:52:00Z,27.6250,-90.4410,15.2,65.0,82.3,-9999.0,'11111222,11111222,99999999' 
ADCP,ioos:station:wmo:42890:1,2015-10-03T00:12:00Z,27.6250,-90.4410,15.2,63.0,81.3,-9999.0,'11111222,11111222,99999999' 
ADCP,ioos:station:wmo:42890:1,2015-10-03T00:32:00Z,27.6250,-90.4410,15.2,65.0,84.8,-9999.0,'11111222,11111222,99999999' 
ADCP,ioos:station:wmo:42890:1,2015-10-03T00:52:00Z,27.6250,-90.4410,15.2,64.0,81.3,-9999.0,'11111222,11111222,99999999' 
ADCP,ioos:station:wmo:42890:1,2015-10-03T01:12:00Z,27.6250,-90.4410,15.2,64.0,79.6,-99999.0,'1111122,1111122,1199999999' 
ADCP,ioos:station:wmo:42890:1,2015-10-03T01:32:00Z,27.6250,-90.4410,15.2,65.0,82.0,-9999.0,'11111222,11111222,99999999' 
ADCP,ioos:station:wmo:42890:1,2015-10-03T01:52:00Z,27.6250,-90.4410,15.2,65.0,83.6,-9999.0,'11111222,11111222,99999999' 
ADCP,ioos:station:wmo:42890:1,2015-10-03T02:12:00Z,27.6250,-90.4410,15.2,65.0,85.6,-99999.0,'1111122,1111122,1199999999' 
ADCP,ioos:station:wmo:42890:1,2015-10-03T02:32:00Z,27.6250,-90.4410,15.2,68.0,95.9,-9999.0,'11111222,11111222,99999999' 
ADCP,ioos:station:wmo:42890:1,2015-10-03T02:52:00Z,27.6250,-90.4410,15.2,66.0,96.0,-9999.0,'11111222,11111222,99999999' 
ADCP,ioos:station:wmo:42890:1,2015-10-03T03:12:00Z,27.6250,-90.4410,15.2,67.0,91.8,-99999.0,'1111122,1111122,1199999999' 
ADCP,ioos:station:wmo:42890:1,2015-10-03T03:32:00Z,27.6250,-90.4410,15.2,69.0,93.9,-9999.0,'11111222,11111222,99999999' 
ADCP,ioos:station:wmo:42890:1,2015-10-03T03:52:00Z,27.6250,-90.4410,15.2,70.0,100.2,-9999.0,'11111222,11111222,99999999' 
ADCP,ioos:station:wmo:42890:1,2015-10-03T04:12:00Z,27.6250,-90.4410,15.2,71.0,99.5,-99999.0,'1111122,1111122,1199999999' 
ADCP,ioos:station:wmo:42890:1,2015-10-03T04:32:00Z,27.6250,-90.4410,15.2,71.0,101.9,-9999.0,'11111222,11111222,99999999' 
ADCP,ioos:station:wmo:42890:1,2015-10-03T04:52:00Z,27.6250,-90.4410,15.2,71.0,97.0,-9999.0,'11111222,11111222,99999999' 
ADCP,ioos:station:wmo:42890:1,2015-10-03T05:12:00Z,27.6250,-90.4410,15.2,70.0,96.4,-99999.0,'1111122,1111122,1199999999' 
ADCP,ioos:station:wmo:42890:1,2015-10-03T05:32:00Z,27.6250,-90.4410,15.2,71.0,96.1,-9999.0,'11111222,11111222,99999999' 
ADCP,ioos:station:wmo:42890:1,2015-10-03T05:52:00Z,27.6250,-90.4410,15.2,72.0,98.7,-9999.0,'11111222,11111222,99999999' 
ADCP,ioos:station:wmo:42890:1,2015-10-03T06:12:00Z,27.6250,-90.4410,15.2,71.0,93.6,-99999.0,'1111122,1111122,1199999999' 
ADCP,ioos:station:wmo:42890:1,2015-10-03T06:32:00Z,27.6250,-90.4410,15.2,71.0,93.8,-99999.0,'1111122,1111122,1199999999' 
ADCP,ioos:station:wmo:42890:1,2015-10-03T06:52:00Z,27.6250,-90.4410,15.2,71.0,96.9,-9999.0,'11111222,11111222,99999999' 
ADCP,ioos:station:wmo:42890:1,2015-10-03T07:12:00Z,27.6250,-90.4410,15.2,70.0,89.1,-9999.0,'11111222,11111222,99999999' 
ADCP,ioos:station:wmo:42890:1,2015-10-03T07:32:00Z,27.6250,-90.4410,15.2,69.0,87.5,-9999.0,'11111222,11111222,99999999' 
ADCP,ioos:station:wmo:42890:1,2015-10-03T07:52:00Z,27.6250,-90.4410,15.2,68.0,80.8,-9999.0,'11111222,11111222,99999999' 
ADCP,ioos:station:wmo:42890:1,2015-10-03T08:12:00Z,27.6250,-90.4410,15.2,68.0,79.7,-9999.0,'11111222,11111222,99999999' 
ADCP,ioos:station:wmo:42890:1,2015-10-03T08:32:00Z,27.6250,-90.4410,15.2,67.0,81.3,-9999.0,'11111222,11111222,99999999' 
ADCP,ioos:station:wmo:42890:1,2015-10-03T08:52:00Z,27.6250,-90.4410,15.2,65.0,79.3,-9999.0,'11111222,11111222,99999999' 
ADCP,ioos:station:wmo:42890:1,2015-10-03T09:12:00Z,27.6250,-90.4410,15.2,64.0,79.1,-99999.0,'1111122,1111122,1199999999' 
ADCP,ioos:station:wmo:42890:1,2015-10-03T09:32:00Z,27.6250,-90.4410,15.2,63.0,74.0,-9999.0,'11111222,11111222,99999999' 
ADCP,ioos:station:wmo:42890:1,2015-10-03T09:52:00Z,27.6250,-90.4410,15.2,63.0,76.1,-9999.0,'11111222,11111222,99999999' 
ADCP,ioos:station:wmo:42890:1,2015-10-03T10:12:00Z,27.6250,-90.4410,15.2,63.0,74.2,-9999.0,'11111222,11111222,99999999' 
ADCP,ioos:station:wmo:42890:1,2015-10-03T10:32:00Z,27.6250,-90.4410,15.2,61.0,76.8,-9999.0,'11111222,11111222,99999999' 
ADCP,ioos:station:wmo:42890:1,2015-10-03T10:52:00Z,27.6250,-90.4410,15.2,59.0,70.6,-9999.0,'11111222,11111222,99999999' 
ADCP,ioos:station:wmo:42890:1,2015-10-03T11:12:00Z,27.6250,-90.4410,15.2,62.0,74.4,-99999.0,'1111122,1111122,1199999999' 
ADCP,ioos:station:wmo:42890:1,2015-10-03T11:32:00Z,27.6250,-90.4410,15.2,57.0,65.8,-9999.0,'11111222,11111222,99999999' 
ADCP,ioos:station:wmo:42890:1,2015-10-03T11:52:00Z,27.6250,-90.4410,15.2,58.0,74.4,-9999.0,'11111222,11111222,99999999' 
ADCP,ioos:station:wmo:42890:1,2015-10-03T12:12:00Z,27.6250,-90.4410,15.2,59.0,76.5,-99999.0,'1111122,1111122,1199999999' 
ADCP,ioos:station:wmo:42890:1,2015-10-03T12:32:00Z,27.6250,-90.4410,15.2,60.0,79.4,-9999.0,'11111222,11111222,99999999' 
ADCP,ioos:station:wmo:42890:1,2015-10-03T12:52:00Z,27.6250,-90.4410,15.2,62.0,77.6,-9999.0,'11111222,11111222,99999999' 
ADCP,ioos:station:wmo:42890:1,2015-10-03T13:12:00Z,27.6250,-90.4410,15.2,63.0,77.0,-99999.0,'1111122,1111122,1199999999' 
ADCP,ioos:station:wmo:42890:1,2015-10-03T13:32:00Z,27.6250,-90.4410,15.2,64.0,76.1,-9999.0,'11111222,11111222,99999999' 
ADCP,ioos:station:wmo:42890:1,2015-10-03T13:52:00Z,27.6250,-90.4410,15.2,64.0,94.2,-9999.0,'11111222,11111222,99999999' 
ADCP,ioos:station:wmo:42890:1,2015-10-03T14:12:00Z,27.6250,-90.4410,15.2,64.0,92.5,-99999.0,'1111122,1111122,1199999999' 
ADCP,ioos:station:wmo:42890:1,2015-10-03T14:32:00Z,27.6250,-90.4410,15.2,62.0,74.8,-9999.0,'11111222,11111222,99999999' 
ADCP,ioos:station:wmo:42890:1,2015-10-03T14:52:00Z,27.6250,-90.4410,15.2,62.0,85.8,-9999.0,'11111222,11111222,99999999' 
ADCP,ioos:station:wmo:42890:1,2015-10-03T15:12:00Z,27.6250,-90.4410,15.2,65.0,87.9,-99999.0,'1111122,1111122,1199999999' 
ADCP,ioos:station:wmo:42890:1,2015-10-03T15:32:00Z,27.6250,-90.4410,15.2,62.0,81.3,-9999.0,'11111222,11111222,99999999' 
ADCP,ioos:station:wmo:42890:1,2015-10-03T15:52:00Z,27.6250,-90.4410,15.2,61.0,79.9,-9999.0,'11111222,11111222,99999999' 
ADCP,ioos:station:wmo:42890:1,2015-10-03T16:12:00Z,27.6250,-90.4410,15.2,65.0,94.4,-99999.0,'1111122,1111122,1199999999' 
ADCP,ioos:station:wmo:42890:1,2015-10-03T16:32:00Z,27.6250,-90.4410,15.2,66.0,95.9,-9999.0,'11111222,11111222,99999999' 
ADCP,ioos:station:wmo:42890:1,2015-10-03T16:52:00Z,27.6250,-90.4410,15.2,65.0,95.5,-9999.0,'11111222,11111222,99999999' 
ADCP,ioos:station:wmo:42890:1,2015-10-03T17:12:00Z,27.6250,-90.4410,15.2,63.0,88.1,-99999.0,'1111122,1111122,1199999999' 